This is the latest recevied weather packets stored in our database for station/object VE9LJW. If no packets are shown the sender has not sent any weather packets the latest 10 day(s).
| Time | Temp. | Humidity | Pressure | Rain* | Wind** | Luminosity | Snow |
|---|---|---|---|---|---|---|---|
| 1777648733 | 13.33° C | 99% | 1001.1 hPa | 0 mm | - | 263 W/m² | - |
| 1777648429 | 13.89° C | 99% | 1001.5 hPa | 0 mm | - | 224 W/m² | - |
| 1777648125 | 13.89° C | 99% | 1001.4 hPa | 0 mm | - | 254 W/m² | - |
| 1777647821 | 13.89° C | 99% | 1001.3 hPa | 0 mm | - | 256 W/m² | - |
| 1777647518 | 13.89° C | 99% | 1001.4 hPa | 0 mm | - | 297 W/m² | - |
| 1777647215 | 13.33° C | 99% | 1001.5 hPa | 0 mm | - | 299 W/m² | - |
| 1777646912 | 13.33° C | 99% | 1001.5 hPa | 0 mm | - | 328 W/m² | - |
| 1777646607 | 12.78° C | 99% | 1001.7 hPa | 0 mm | - | 306 W/m² | - |
| 1777646304 | 13.33° C | 99% | 1001.7 hPa | 0 mm | - | 139 W/m² | - |
| 1777646001 | 13.33° C | 99% | 1001.8 hPa | 0 mm | - | 137 W/m² | - |
| 1777645698 | 13.89° C | 99% | 1001.7 hPa | 0 mm | - | 76 W/m² | - |
| 1777645394 | 13.89° C | 99% | 1001.5 hPa | 0.51 mm | - | 62 W/m² | - |
| 1777645090 | 13.33° C | 99% | 1001.5 hPa | 1.27 mm | - | 98 W/m² | - |
| 1777644786 | 13.89° C | 99% | 1001.8 hPa | 0.51 mm | - | 72 W/m² | - |
| 1777644484 | 13.89° C | 99% | 1001.5 hPa | 0 mm | - | 70 W/m² | - |
| 1777644180 | 13.89° C | 99% | 1001.5 hPa | 0 mm | - | 59 W/m² | - |
| 1777643877 | 13.89° C | 99% | 1001.5 hPa | 0.51 mm | - | 57 W/m² | - |
| 1777643575 | 13.33° C | 99% | 1001.5 hPa | 0.51 mm | - | 97 W/m² | - |
| 1777643271 | 13.89° C | 99% | 1001.6 hPa | 0 mm | - | 67 W/m² | - |
| 1777642968 | 13.89° C | 99% | 1001.5 hPa | 0 mm | - | 59 W/m² | - |
| 1777642664 | 13.89° C | 99% | 1001.6 hPa | 0 mm | - | 60 W/m² | - |
| 1777642361 | 13.89° C | 99% | 1001.8 hPa | 0 mm | - | 69 W/m² | - |
| 1777642058 | 13.89° C | 99% | 1001.5 hPa | 0 mm | - | 83 W/m² | - |
| 1777641754 | 13.33° C | 99% | 1001.6 hPa | 0 mm | - | 121 W/m² | - |
| 1777641454 | 13.33° C | 99% | 1001.7 hPa | 0 mm | - | 150 W/m² | - |
* Rain latest hour (hover to see other rain measurements)
** Current wind speed in m/s (hover to see current wind gust speed)